Location: Chippewa Lake
(41.0698°N, 81.9010°W)
Time: 20:44:14
(UTC+00:00)

Cosmos 1371 Rocket - Pass Details

Date: 09 May 2021
Orbit: 754 x 789 km, 74.0° (Epoch: 16 June)

Event Time Altitude Azimuth Distance (km) Brightness Sun altitude
Exits shadow 08:41:26 19° 194° (SSW) 1,767 5.4 -15.8°
Maximum altitude 08:45:15 83° 108° (ESE) 776 4.0 -15.2°
Drops below altitude 10° 08:50:28 10° 21° (NNE) 2,300 7.4 -14.5°
Sets 08:52:50 0° 21° (NNE) 3,226 8.3 -14.1°
